[[{"header":{"parameterUnit":"m.s-1","parameterCategory":1,"la1":30.2991,"la2":30.254,"lo1":-89.0895,"lo2":-89.0444,"dy":0.0017,"dx":0.0017,"nx":28,"ny":28,"refTime":"2024-07-19T03:00:00:Z","depth":0,"parameterNumber":2,"parameterNumberName":"U-component_of_WINDS"},"data":[0,0,0,0,0,0,0,0,0,0,0,0,0,0,0,0,0,0,0,0,0,0,0,0,0,0,0,0,0,0,0,0,0,0,0,0,0,0,0,0,0,0,0,0,0,0,0,0,0,0,0,0,0,0,0,0,0,0,0.1103,0.1103,0,0.1062,0.1061,0.1061,0.1017,0.1016,0.1016,0.1015,0.0974,0.0974,0.0973,0,0,0,0,0,0,0,0,0,0,0,0,0,0.1143,0.1142,0.1103,0.1103,0.1102,0.1062,0.1061,0.1061,0.1017,0.1016,0.1016,0.1015,0.0974,0.0974,0.0973,0,0,0,0,0,0,0,0,0,0,0,0,0,0.1116,0.1142,0.1103,0.1075,0.1072,0.1062,0.1061,0.1061,0.1017,0.1016,0.1015,0.1014,0.0975,0.0974,0.0973,0.0987,0,0,0.0971,0.097,0,0,0,0,0,0,0,0,0.1118,0.1115,0.108,0.1077,0.1074,0.1044,0.106,0.1036,0.1017,0.1038,0.1015,0.1014,0.0998,0.0995,0.099,0.0985,0.0984,0.0971,0.097,0.097,0.097,0,0,0,0,0,0,0,0.112,0.1116,0.1087,0.1079,0.1076,0.1065,0.106,0.1056,0.1024,0.1036,0.1033,0.1029,0.0996,0.0991,0.0988,0.0983,0.0971,0.097,0.097,0.0969,0.0985,0.0986,0,0,0,0,0,0,0.1126,0.1118,0.1088,0.1086,0.1094,0.1065,0.1059,0.1054,0.1024,0.1018,0.103,0.1027,0.0992,0.0989,0.0987,0.1,0.097,0.0969,0.0969,0.0984,0.0985,0.0986,0,0,0,0,0,0,0.1127,0.1123,0.109,0.1101,0.1096,0.1065,0.106,0.1054,0.1048,0.1019,0.1013,0.103,0.0991,0.0988,0.0987,0.0998,0.0969,0.0968,0.0983,0.0985,0.0986,0.1026,0,0,0,0,0,0,0.1128,0.1124,0.113,0.1101,0.1095,0.1091,0.106,0.1054,0.1047,0.1043,0.1017,0.1012,0.099,0.0988,0.0986,0.0996,0.0968,0.0982,0.0984,0.0985,0.1024,0.1029,0.1033,0,0,0,0,0,0.113,0.1144,0.113,0.1127,0.1101,0.1091,0.1088,0.1063,0.1048,0.1053,0.1033,0.1013,0.0997,0.0988,0.0986,0.0996,0.0981,0.0983,0.0985,0.1022,0.1028,0.1033,0,0,0,0,0,0,0.1175,0.1139,0.1124,0.1129,0.1114,0.1084,0.109,0.107,0.1059,0.1056,0.1025,0.1019,0.1021,0.1008,0.1,0.1006,0.0986,0.0988,0.1015,0.102,0.1025,0.1028,0.0967,0,0,0,0,0,0.1185,0.118,0.1149,0.1157,0.115,0.1121,0.1116,0.1097,0.108,0.1073,0.1054,0.1038,0.1029,0.1024,0.1014,0.1022,0.1015,0.1027,0.1032,0.1036,0.1037,0.1038,0.1043,0.0993,0.0993,0.0993,0,0,0.1207,0.1187,0.1186,0.1165,0.1151,0.1146,0.1116,0.1112,0.1108,0.1073,0.107,0.1055,0.1035,0.1038,0.1038,0.1027,0.1049,0.1038,0.1042,0.1041,0.1041,0.1045,0.105,0.0994,0.0994,0.0994,0,0,0.1244,0.1229,0.1232,0.1218,0.1196,0.1176,0.1177,0.115,0.1138,0.1135,0.1108,0.1102,0.1088,0.1074,0.1065,0.1094,0.1074,0.1092,0.1116,0.1117,0.1121,0.1124,0.1133,0.1137,0.1094,0.1094,0.1094,0,0.1274,0.1265,0.1237,0.1234,0.1225,0.1192,0.1194,0.1182,0.1158,0.1153,0.1141,0.112,0.1105,0.1103,0.1109,0.1104,0.1103,0.1095,0.1123,0.1126,0.1128,0.1136,0.114,0.1096,0.1096,0.1095,0.1095,0,0.1302,0.1296,0.1301,0.1278,0.127,0.127,0.1241,0.1236,0.1217,0.1199,0.1194,0.1174,0.1159,0.1157,0.114,0.1152,0.1145,0.1128,0.1107,0.1136,0.1143,0.1146,0.1099,0.1098,0.1097,0.1097,0,0,0.1368,0.1327,0.1329,0.1317,0.1289,0.1284,0.1282,0.1266,0.1261,0.1246,0.1242,0.123,0.1213,0.1203,0.1184,0.1185,0.1207,0.1167,0.1166,0.1174,0.1216,0.1229,0.1233,0.1193,0.1194,0.1194,0.1218,0,0.1399,0.1392,0.1366,0.1367,0.136,0.1327,0.1325,0.1308,0.129,0.1281,0.1261,0.1252,0.1232,0.1225,0.1225,0.1204,0.1214,0.1202,0.1189,0.1189,0.1194,0.1237,0.125,0.1274,0.122,0.1221,0.1221,0,0.1435,0.142,0.142,0.139,0.1386,0.1385,0.1367,0.1359,0.1338,0.1325,0.1312,0.129,0.1284,0.1265,0.1256,0.1249,0.1241,0.123,0.123,0.1228,0.1207,0.1235,0.1281,0.1284,0.1226,0.1225,0.1225,0,0.1481,0.1461,0.1458,0.1448,0.1414,0.1413,0.1399,0.1377,0.1368,0.1352,0.1346,0.133,0.1322,0.131,0.1283,0.1271,0.1277,0.1256,0.1265,0.1266,0.1268,0.1268,0.1313,0.1265,0.1265,0.1265,0.1265,0,0.1518,0.1519,0.1477,0.1476,0.1475,0.1444,0.1445,0.1427,0.1407,0.1401,0.1372,0.1367,0.1332,0.1323,0.1302,0.1297,0.1294,0.1282,0.1277,0.1284,0.1286,0.1279,0.1277,0.1266,0.1265,0.1265,0.1265,0,0.1569,0.1542,0.1536,0.1503,0.1495,0.1496,0.1467,0.1464,0.1443,0.1436,0.1432,0.14,0.1387,0.1359,0.1339,0.1325,0.1325,0.1315,0.1332,0.1328,0.1339,0.1338,0.1381,0.1384,0.1335,0.1335,0.1336,0,0.1595,0.1595,0.1561,0.1554,0.1541,0.1531,0.1521,0.1489,0.1481,0.1455,0.1454,0.1439,0.1424,0.1405,0.138,0.1364,0.1353,0.1369,0.135,0.1358,0.1352,0.1352,0.1351,0.1373,0.1374,0.1374,0.1375,0,0.1642,0.1628,0.1615,0.1597,0.1586,0.157,0.1553,0.1549,0.1513,0.1504,0.149,0.1479,0.1457,0.1442,0.1421,0.1406,0.1384,0.1381,0.1382,0.139,0.1399,0.1392,0.1342,0.138,0.1379,0.1379,0.1379,0.1379,0.168,0.1678,0.1653,0.1639,0.1622,0.1606,0.1601,0.1579,0.1566,0.1545,0.1528,0.1515,0.1491,0.1461,0.1447,0.1436,0.1425,0.1428,0.1428,0.1429,0.1431,0.1401,0.1432,0.1432,0.1432,0.1432,0.1432,0,0.1725,0.1707,0.1694,0.167,0.1659,0.1638,0.1618,0.1609,0.1598,0.1578,0.1564,0.1546,0.153,0.1503,0.1485,0.1481,0.147,0.1477,0.1477,0.1473,0.1443,0.1443,0.1486,0.1486,0.1486,0.1486,0.1486,0.1486,0.1747,0.1741,0.1724,0.1708,0.169,0.1676,0.1666,0.1651,0.1634,0.1616,0.1602,0.1584,0.156,0.154,0.1524,0.1516,0.151,0.152,0.1509,0.1481,0.1476,0.1471,0.1471,0.1519,0.1519,0.154,0.1541,0.1541]},{"header":{"parameterUnit":"m.s-1","parameterCategory":1,"la1":30.2991,"la2":30.254,"lo1":-89.0895,"lo2":-89.0444,"dy":0.0017,"dx":0.0017,"nx":28,"ny":28,"refTime":"2024-07-19T03:00:00:Z","depth":0,"parameterNumber":3,"parameterNumberName":"V-component_of_WINDS"},"data":[0,0,0,0,0,0,0,0,0,0,0,0,0,0,0,0,0,0,0,0,0,0,0,0,0,0,0,0,0,0,0,0,0,0,0,0,0,0,0,0,0,0,0,0,0,0,0,0,0,0,0,0,0,0,0,0,0,0,4.4878,4.4879,0,4.4966,4.4967,4.4968,4.4939,4.4937,4.4935,4.4934,4.5018,4.5022,4.5026,0,0,0,0,0,0,0,0,0,0,0,0,0,4.4679,4.4682,4.4878,4.4879,4.488,4.4966,4.4967,4.4968,4.4939,4.4937,4.4935,4.4933,4.5017,4.5022,4.5026,0,0,0,0,0,0,0,0,0,0,0,0,0,4.4766,4.4684,4.4877,4.4876,4.4877,4.4965,4.4967,4.4968,4.494,4.4937,4.4934,4.4932,4.5015,4.5021,4.5027,4.5121,0,0,4.5045,4.5048,0,0,0,0,0,0,0,0,4.4761,4.4773,4.4875,4.4876,4.4877,4.4939,4.4928,4.5019,4.4941,4.4916,4.4934,4.493,4.4994,4.5001,4.5024,4.5125,4.5128,4.5046,4.505,4.5052,4.5054,0,0,0,0,0,0,0,4.4755,4.4769,4.4912,4.4877,4.4878,4.4869,4.4878,4.4945,4.4969,4.4918,4.4916,4.4927,4.4994,4.5018,4.5026,4.5129,4.5046,4.5051,4.5055,4.5057,4.5309,4.5312,0,0,0,0,0,0,4.4749,4.4764,4.491,4.4915,4.4811,4.4875,4.4885,4.4922,4.4969,4.4973,4.4929,4.4925,4.5009,4.5019,4.5028,4.5139,4.5052,4.5058,4.5061,4.5306,4.5309,4.5313,0,0,0,0,0,0,4.4745,4.4762,4.4906,4.4839,4.4857,4.4881,4.4923,4.4925,4.4949,4.4977,4.4981,4.495,4.5007,4.502,4.5098,4.5142,4.5061,4.5066,4.5302,4.5307,4.5311,4.5362,0,0,0,0,0,0,4.4739,4.4761,4.4798,4.484,4.4861,4.4976,4.4925,4.4929,4.4961,4.4956,4.4998,4.5002,4.5006,4.5089,4.5104,4.5148,4.5071,4.5298,4.5304,4.531,4.5356,4.5368,4.5378,0,0,0,0,0,4.4732,4.4808,4.48,4.4818,4.4908,4.4978,4.499,4.4995,4.4964,4.5001,4.5018,4.5001,4.5135,4.5097,4.5114,4.5161,4.5295,4.5302,4.5309,4.5352,4.5366,4.5377,0,0,0,0,0,0,4.4769,4.4814,4.4805,4.4898,4.4935,4.4974,4.502,4.5009,4.5054,4.5048,4.505,4.506,4.5139,4.5158,4.5115,4.5252,4.521,4.5221,4.5237,4.525,4.5261,4.5253,4.5076,0,0,0,0,0,4.4788,4.4843,4.4879,4.4957,4.4976,4.4995,4.5026,4.5026,4.5064,4.5079,4.5102,4.5138,4.5188,4.522,4.5268,4.536,4.5367,4.54,4.5411,4.5419,4.5427,4.5475,4.5489,4.5335,4.5335,4.5335,0,0,4.4827,4.4859,4.4893,4.4965,4.4994,4.5049,4.5008,4.5069,4.5108,4.5087,4.5162,4.5181,4.522,4.5305,4.5343,4.5323,4.5472,4.5428,4.5435,4.5438,4.5483,4.5498,4.5511,4.534,4.5339,4.5339,0,0,4.4927,4.4957,4.5025,4.5055,4.5099,4.5111,4.5127,4.5168,4.518,4.5256,4.524,4.5287,4.5374,4.5402,4.5428,4.5538,4.5522,4.5553,4.5607,4.5653,4.5665,4.5676,4.5713,4.5726,4.5562,4.5562,4.5562,0,4.4969,4.5054,4.506,4.5122,4.5152,4.5138,4.5205,4.5233,4.529,4.531,4.5288,4.5395,4.5421,4.5511,4.5538,4.556,4.5576,4.5547,4.5663,4.5674,4.5684,4.5719,4.5733,4.5565,4.5565,4.5565,4.5564,0,4.5102,4.5161,4.521,4.5267,4.5303,4.5367,4.5381,4.5417,4.5415,4.5428,4.5504,4.5535,4.5588,4.561,4.5607,4.5699,4.5684,4.5663,4.562,4.5702,4.5735,4.5748,4.557,4.5569,4.5568,4.5567,0,0,4.5226,4.5286,4.5304,4.5328,4.5377,4.5421,4.5483,4.5536,4.5566,4.5606,4.5656,4.573,4.571,4.5739,4.574,4.5781,4.5863,4.5754,4.5755,4.5771,4.5962,4.5977,4.5992,4.5854,4.5857,4.5859,4.5958,0,4.5327,4.5439,4.5446,4.5546,4.5598,4.5585,4.5639,4.5673,4.5688,4.5733,4.5748,4.5799,4.5771,4.5788,4.5828,4.5845,4.5901,4.5838,4.5898,4.59,4.5886,4.601,4.6025,4.6118,4.5971,4.5974,4.5975,0,4.546,4.5506,4.5611,4.565,4.5672,4.5721,4.5769,4.5814,4.5851,4.5859,4.5892,4.5887,4.5948,4.5905,4.5988,4.5945,4.597,4.5982,4.5986,4.599,4.5941,4.6014,4.6148,4.616,4.5996,4.5994,4.5993,0,4.5537,4.5624,4.5698,4.572,4.5768,4.5802,4.5823,4.5859,4.589,4.5932,4.5951,4.6,4.6025,4.6062,4.6069,4.6038,4.6151,4.611,4.6157,4.6157,4.6179,4.6177,4.6316,4.62,4.62,4.62,4.6199,0,4.5648,4.5712,4.5732,4.5777,4.5848,4.5856,4.5925,4.5944,4.5975,4.6022,4.6013,4.6057,4.6065,4.611,4.6116,4.6182,4.6195,4.6201,4.6201,4.62,4.6199,4.6215,4.6207,4.6203,4.6202,4.6202,4.6201,0,4.5744,4.5761,4.584,4.588,4.5891,4.5941,4.5974,4.6016,4.603,4.6089,4.6103,4.6124,4.6176,4.6188,4.625,4.6254,4.6332,4.6327,4.6319,4.6318,4.6364,4.6358,4.6515,4.6535,4.6409,4.641,4.6411,0,4.5812,4.5862,4.5907,4.5938,4.5962,4.6013,4.6045,4.6053,4.6086,4.6133,4.6168,4.622,4.6262,4.6346,4.6365,4.6412,4.6406,4.6458,4.6413,4.641,4.6404,4.64,4.6404,4.6466,4.6467,4.6468,4.6469,0,4.5931,4.5937,4.5984,4.6035,4.6073,4.6113,4.615,4.6176,4.6189,4.6227,4.6281,4.6313,4.6377,4.6427,4.6474,4.6493,4.6483,4.6484,4.6497,4.6495,4.6487,4.6489,4.634,4.6479,4.6478,4.6478,4.6477,4.6477,4.6014,4.6056,4.6095,4.6147,4.6176,4.6212,4.6253,4.6272,4.6318,4.6371,4.6373,4.6432,4.6466,4.6528,4.6551,4.6595,4.6579,4.6598,4.6602,4.6606,4.6609,4.6483,4.6604,4.6604,4.6603,4.6603,4.6603,0,4.613,4.6154,4.6203,4.6256,4.6296,4.6286,4.6326,4.636,4.6412,4.6446,4.6488,4.6549,4.6598,4.6621,4.6669,4.67,4.6696,4.6712,4.6708,4.6712,4.6623,4.6605,4.6714,4.6714,4.6714,4.6714,4.6714,4.6714,4.6195,4.6266,4.6276,4.636,4.6383,4.6442,4.6465,4.6497,4.6524,4.6593,4.6634,4.665,4.6679,4.6729,4.6773,4.6778,4.6795,4.6812,4.6815,4.673,4.6719,4.6708,4.6692,4.6817,4.6817,4.6901,4.6902,4.6902]}]]